Powrót do katalogu

OPS 5798

TRANSIT 5B-4

AktywnyNawigacjaPO
NORAD 897·PAYLOAD·🇺🇸 United States

Wystrzelony Oct 6, 1964 z Vandenberg Space Force Base

Loading…

Następne Przeloty (najbliższe 24 godziny)

TLE

ŚwieżeSource: Space-Track

Epoka: Sep 14, 2026, 11:26 UTC

1 00897U 64063B   26257.47695256  .00000037  00000-0  42465-4 0  9994
2 00897  90.2283  77.6099 0017662 280.1745 108.1553 13.53743857 57301

Śledź OPS 5798 w czasie rzeczywistym z AllMySat

Download on the App Store